Station Historical Data
Daily Summary for October 12, 2017 Units:  Metric    English   Both
« Previous Day
Next Day »
Daily Weekly Monthly Yearly Custom
  High: Low: Average:
Temperature: 18.2 °C 10.9 °C 13.8 °C
Dew Point: 13.7 °C 9.2 °C 11.2 °C
Humidity: 90% 74% 85%
Wind Speed: 19.3km/h 0km/h 7.1km/h
Wind Gust: 33.8km/h - -
Wind- - East
Pressure: 1024.9 hPa 1022.2 hPa -
Precipitation: 0.76 mm    
Historical Graphs
 
 
Tabular Data for October 12, 2017
Time Temperature Dew Point Pressure Wind Wind Speed Wind Gust Humidity Rainfall Rate (Hourly)
00:04 11.1 °C 9.4 °C 1022.2 hPa ENE 11.3 km/h 24.1 km/h 89% 0 mm
00:09 11.1 °C 9.4 °C 1022.2 hPa NE 11.3 km/h 24.1 km/h 89% 0 mm
00:14 11.1 °C 9.4 °C 1022.2 hPa ENE 9.7 km/h 22.5 km/h 89% 0 mm
00:19 11.2 °C 9.4 °C 1022.2 hPa ENE 9.7 km/h 20.9 km/h 89% 0 mm
00:24 11.2 °C 9.4 °C 1022.2 hPa ENE 11.3 km/h 25.7 km/h 89% 0 mm
00:29 11.2 °C 9.4 °C 1022.2 hPa ENE 11.3 km/h 25.7 km/h 89% 0 mm
00:34 11.2 °C 9.4 °C 1022.2 hPa NE 12.9 km/h 20.9 km/h 89% 0 mm
00:39 11.2 °C 9.5 °C 1022.6 hPa NE 12.9 km/h 24.1 km/h 89% 0 mm
00:44 11.2 °C 9.4 °C 1022.6 hPa NE 8 km/h 22.5 km/h 89% 0 mm
00:49 11.2 °C 9.5 °C 1022.6 hPa ENE 16.1 km/h 33.8 km/h 89% 0 mm
00:54 11.2 °C 9.5 °C 1022.6 hPa NE 19.3 km/h 29 km/h 89% 0 mm
00:59 11.2 °C 9.5 °C 1022.6 hPa NE 17.7 km/h 27.4 km/h 89% 0 mm
01:04 11.3 °C 9.6 °C 1022.6 hPa NE 11.3 km/h 24.1 km/h 89% 0 mm
01:09 11.3 °C 9.6 °C 1022.6 hPa NE 12.9 km/h 24.1 km/h 89% 0 mm
01:14 11.3 °C 9.6 °C 1022.6 hPa NE 12.9 km/h 24.1 km/h 89% 0 mm
01:19 11.3 °C 9.6 °C 1022.6 hPa NE 12.9 km/h 24.1 km/h 89% 0 mm
01:24 11.3 °C 9.6 °C 1022.6 hPa NE 12.9 km/h 20.9 km/h 89% 0 mm
01:29 11.3 °C 9.6 °C 1022.6 hPa NE 9.7 km/h 20.9 km/h 89% 0 mm
01:34 11.2 °C 9.7 °C 1022.6 hPa NE 9.7 km/h 20.9 km/h 90% 0.25 mm
01:39 11.2 °C 9.7 °C 1022.6 hPa ENE 11.3 km/h 24.1 km/h 90% 0.25 mm
01:44 11.2 °C 9.7 °C 1022.6 hPa ENE 12.9 km/h 24.1 km/h 90% 0.25 mm
01:49 11.3 °C 9.7 °C 1022.6 hPa ENE 14.5 km/h 25.7 km/h 90% 0.25 mm
01:54 11.3 °C 9.7 °C 1022.6 hPa ENE 11.3 km/h 25.7 km/h 90% 0.25 mm
01:59 11.3 °C 9.7 °C 1022.6 hPa ENE 12.9 km/h 32.2 km/h 90% 0.25 mm
02:04 11.2 °C 9.7 °C 1022.6 hPa ENE 16.1 km/h 22.5 km/h 90% 0.25 mm
02:09 11.3 °C 9.7 °C 1022.6 hPa ENE 17.7 km/h 25.7 km/h 90% 0.25 mm
02:14 11.3 °C 9.7 °C 1022.6 hPa ENE 6.4 km/h 24.1 km/h 90% 0.25 mm
02:19 11.2 °C 9.7 °C 1022.6 hPa NE 12.9 km/h 25.7 km/h 90% 0.25 mm
02:24 11.2 °C 9.7 °C 1022.6 hPa ENE 11.3 km/h 25.7 km/h 90% 0.25 mm
02:29 11.2 °C 9.6 °C 1022.6 hPa ENE 11.3 km/h 19.3 km/h 90% 0.25 mm
02:34 11.1 °C 9.6 °C 1022.6 hPa ENE 11.3 km/h 24.1 km/h 90% 0.25 mm
02:39 11.1 °C 9.6 °C 1022.6 hPa ENE 11.3 km/h 24.1 km/h 90% 0.25 mm
02:44 11.1 °C 9.5 °C 1022.6 hPa East 12.9 km/h 17.7 km/h 90% 0.25 mm
02:49 11.1 °C 9.5 °C 1022.6 hPa NE 6.4 km/h 27.4 km/h 90% 0.25 mm
02:54 11.1 °C 9.5 °C 1022.6 hPa ENE 9.7 km/h 27.4 km/h 90% 0.25 mm
02:59 11 °C 9.4 °C 1022.6 hPa ENE 8 km/h 20.9 km/h 90% 0.25 mm
03:04 11 °C 9.4 °C 1022.6 hPa ENE 12.9 km/h 19.3 km/h 90% 0.25 mm
03:09 11 °C 9.4 °C 1022.6 hPa ENE 11.3 km/h 19.3 km/h 90% 0.25 mm
03:14 11 °C 9.4 °C 1022.6 hPa NE 8 km/h 19.3 km/h 90% 0.25 mm
03:19 10.9 °C 9.4 °C 1022.6 hPa ENE 12.9 km/h 16.1 km/h 90% 0.25 mm
03:24 10.9 °C 9.4 °C 1022.6 hPa ENE 9.7 km/h 20.9 km/h 90% 0.25 mm
03:29 10.9 °C 9.4 °C 1022.6 hPa ENE 11.3 km/h 24.1 km/h 90% 0.25 mm
03:34 10.9 °C 9.4 °C 1022.2 hPa ENE 11.3 km/h 24.1 km/h 90% 0 mm
03:39 10.9 °C 9.4 °C 1022.6 hPa ENE 9.7 km/h 20.9 km/h 90% 0 mm
03:44 10.9 °C 9.4 °C 1022.2 hPa ENE 8 km/h 16.1 km/h 90% 0 mm
03:49 11 °C 9.4 °C 1022.6 hPa SE 12.9 km/h 20.9 km/h 90% 0 mm
03:59 10.9 °C 9.4 °C 1022.2 hPa ENE 11.3 km/h 17.7 km/h 90% 0 mm
04:04 11 °C 9.3 °C 1022.6 hPa East 16.1 km/h 20.9 km/h 89% 0 mm
04:09 10.9 °C 9.2 °C 1022.6 hPa NE 8 km/h 19.3 km/h 89% 0 mm
04:14 11 °C 9.3 °C 1022.6 hPa East 3.2 km/h 14.5 km/h 89% 0 mm
04:19 11.1 °C 9.3 °C 1022.6 hPa ENE 8 km/h 16.1 km/h 89% 0 mm
04:24 11 °C 9.3 °C 1022.6 hPa ENE 9.7 km/h 17.7 km/h 89% 0 mm
04:29 11 °C 9.3 °C 1022.6 hPa ENE 4.8 km/h 17.7 km/h 89% 0 mm
04:34 11.1 °C 9.3 °C 1022.6 hPa NE 6.4 km/h 24.1 km/h 89% 0 mm
04:39 11.1 °C 9.3 °C 1022.6 hPa NE 11.3 km/h 16.1 km/h 89% 0 mm
04:44 11.1 °C 9.3 °C 1022.6 hPa NE 9.7 km/h 16.1 km/h 89% 0 mm
04:49 11.1 °C 9.4 °C 1022.6 hPa ENE 9.7 km/h 17.7 km/h 89% 0 mm
04:54 11.1 °C 9.3 °C 1022.6 hPa ENE 9.7 km/h 17.7 km/h 89% 0 mm
04:59 11.1 °C 9.3 °C 1022.6 hPa ENE 8 km/h 17.7 km/h 89% 0 mm
05:04 11.1 °C 9.3 °C 1022.6 hPa ENE 8 km/h 17.7 km/h 89% 0 mm
05:09 11.1 °C 9.3 °C 1022.9 hPa ENE 8 km/h 16.1 km/h 89% 0 mm
05:14 11.1 °C 9.3 °C 1022.9 hPa ENE 6.4 km/h 16.1 km/h 89% 0 mm
05:19 11.1 °C 9.3 °C 1022.9 hPa ENE 8 km/h 12.9 km/h 89% 0 mm
05:24 11.1 °C 9.3 °C 1022.9 hPa NE 12.9 km/h 12.9 km/h 89% 0 mm
05:29 11.1 °C 9.3 °C 1022.9 hPa NE 6.4 km/h 19.3 km/h 89% 0 mm
05:34 11.1 °C 9.3 °C 1022.9 hPa NE 6.4 km/h 16.1 km/h 89% 0 mm
05:39 11.1 °C 9.3 °C 1022.9 hPa ENE 3.2 km/h 14.5 km/h 89% 0 mm
05:44 11.1 °C 9.3 °C 1022.9 hPa ENE 8 km/h 16.1 km/h 89% 0 mm
05:49 11.1 °C 9.4 °C 1023.2 hPa ENE 8 km/h 16.1 km/h 89% 0 mm
05:54 11.1 °C 9.6 °C 1023.2 hPa ENE 6.4 km/h 16.1 km/h 90% 0 mm
05:59 11.2 °C 9.6 °C 1023.2 hPa NE 4.8 km/h 16.1 km/h 90% 0 mm
06:04 11.2 °C 9.6 °C 1023.2 hPa NE 14.5 km/h 17.7 km/h 90% 0 mm
06:09 11.2 °C 9.6 °C 1023.2 hPa NE 12.9 km/h 17.7 km/h 90% 0 mm
06:14 11.2 °C 9.6 °C 1023.2 hPa ENE 6.4 km/h 17.7 km/h 90% 0 mm
06:24 11.2 °C 9.6 °C 1023.6 hPa ENE 8 km/h 19.3 km/h 90% 0 mm
06:29 11.2 °C 9.6 °C 1023.2 hPa ENE 9.7 km/h 19.3 km/h 90% 0 mm
06:34 11.2 °C 9.6 °C 1023.6 hPa ENE 6.4 km/h 14.5 km/h 90% 0 mm
06:39 11.2 °C 9.7 °C 1023.6 hPa NE 6.4 km/h 16.1 km/h 90% 0 mm
06:44 11.3 °C 9.7 °C 1023.6 hPa NE 4.8 km/h 16.1 km/h 90% 0 mm
06:49 11.3 °C 9.7 °C 1023.6 hPa ENE 8 km/h 16.1 km/h 90% 0 mm
06:54 11.3 °C 9.8 °C 1023.6 hPa ENE 8 km/h 19.3 km/h 90% 0 mm
06:59 11.3 °C 9.8 °C 1023.6 hPa East 9.7 km/h 17.7 km/h 90% 0 mm
07:04 11.3 °C 9.8 °C 1023.6 hPa NE 9.7 km/h 19.3 km/h 90% 0 mm
07:09 11.3 °C 9.8 °C 1023.6 hPa NE 11.3 km/h 16.1 km/h 90% 0 mm
07:14 11.4 °C 9.8 °C 1023.6 hPa NE 4.8 km/h 16.1 km/h 90% 0 mm
07:19 11.4 °C 9.8 °C 1023.6 hPa ENE 8 km/h 16.1 km/h 90% 0 mm
07:24 11.4 °C 9.8 °C 1023.6 hPa ENE 8 km/h 16.1 km/h 90% 0 mm
07:29 11.4 °C 9.8 °C 1023.6 hPa ENE 8 km/h 16.1 km/h 90% 0 mm
07:34 11.4 °C 9.8 °C 1023.6 hPa ENE 8 km/h 17.7 km/h 90% 0 mm
07:39 11.4 °C 9.8 °C 1023.6 hPa ENE 8 km/h 22.5 km/h 90% 0 mm
07:44 11.4 °C 9.8 °C 1023.6 hPa East 8 km/h 22.5 km/h 90% 0 mm
07:49 11.4 °C 9.8 °C 1023.6 hPa East 9.7 km/h 20.9 km/h 90% 0 mm
07:54 11.4 °C 9.9 °C 1023.6 hPa East 8 km/h 24.1 km/h 90% 0 mm
07:59 11.4 °C 9.9 °C 1023.9 hPa ENE 6.4 km/h 14.5 km/h 90% 0 mm
08:04 11.5 °C 9.9 °C 1023.9 hPa East 4.8 km/h 16.1 km/h 90% 0 mm
08:09 11.5 °C 9.9 °C 1023.9 hPa SSE 9.7 km/h 14.5 km/h 90% 0 mm
08:19 11.6 °C 9.8 °C 1023.9 hPa ENE 8 km/h 20.9 km/h 89% 0 mm
08:24 11.7 °C 9.9 °C 1023.9 hPa ENE 8 km/h 17.7 km/h 89% 0 mm
08:29 11.7 °C 9.9 °C 1024.3 hPa ENE 9.7 km/h 17.7 km/h 89% 0 mm
08:34 11.8 °C 10 °C 1024.3 hPa ENE 6.4 km/h 17.7 km/h 89% 0 mm
08:39 11.8 °C 10.1 °C 1024.3 hPa NE 9.7 km/h 14.5 km/h 89% 0 mm
08:44 11.9 °C 10.1 °C 1024.3 hPa ENE 9.7 km/h 20.9 km/h 89% 0 mm
08:49 11.9 °C 10.2 °C 1024.3 hPa ENE 9.7 km/h 20.9 km/h 89% 0 mm
08:54 11.9 °C 10.2 °C 1024.3 hPa ENE 9.7 km/h 20.9 km/h 89% 0 mm
08:59 12.1 °C 10.3 °C 1024.3 hPa ESE 8 km/h 19.3 km/h 89% 0 mm
09:04 12.1 °C 10.3 °C 1024.3 hPa ENE 14.5 km/h 16.1 km/h 89% 0 mm
09:09 12.2 °C 10.4 °C 1024.3 hPa ENE 8 km/h 16.1 km/h 89% 0 mm
09:14 12.2 °C 10.4 °C 1024.3 hPa ENE 9.7 km/h 19.3 km/h 89% 0 mm
09:19 12.3 °C 10.3 °C 1024.3 hPa ENE 11.3 km/h 19.3 km/h 88% 0 mm
09:24 12.3 °C 10.3 °C 1024.3 hPa ENE 12.9 km/h 17.7 km/h 88% 0 mm
09:29 12.3 °C 10.3 °C 1024.3 hPa ENE 4.8 km/h 16.1 km/h 88% 0 mm
09:34 12.3 °C 10.3 °C 1024.6 hPa ENE 11.3 km/h 20.9 km/h 88% 0 mm
09:39 12.3 °C 10.4 °C 1024.6 hPa ENE 9.7 km/h 20.9 km/h 88% 0 mm
09:44 12.3 °C 10.4 °C 1024.6 hPa ENE 9.7 km/h 19.3 km/h 88% 0 mm
09:49 12.4 °C 10.4 °C 1024.6 hPa ENE 9.7 km/h 19.3 km/h 88% 0 mm
09:54 12.4 °C 10.5 °C 1024.6 hPa ENE 11.3 km/h 22.5 km/h 88% 0 mm
09:59 12.5 °C 10.6 °C 1024.6 hPa NE 8 km/h 20.9 km/h 88% 0 mm
10:04 12.6 °C 10.6 °C 1024.6 hPa NE 16.1 km/h 20.9 km/h 88% 0 mm
10:09 12.6 °C 10.7 °C 1024.6 hPa ENE 9.7 km/h 22.5 km/h 88% 0 mm
10:14 12.7 °C 10.8 °C 1024.6 hPa ESE 14.5 km/h 20.9 km/h 88% 0 mm
10:19 12.8 °C 10.8 °C 1024.6 hPa NE 19.3 km/h 24.1 km/h 88% 0 mm
10:24 12.9 °C 10.8 °C 1024.6 hPa ENE 4.8 km/h 22.5 km/h 87% 0 mm
10:29 13.1 °C 11.1 °C 1024.6 hPa NE 8 km/h 22.5 km/h 88% 0 mm
10:35 13.2 °C 11.1 °C 1024.6 hPa NE 12.9 km/h 22.5 km/h 87% 0 mm
10:40 13.3 °C 11.2 °C 1024.6 hPa NE 11.3 km/h 22.5 km/h 87% 0 mm
10:45 13.4 °C 11.3 °C 1024.6 hPa ENE 9.7 km/h 22.5 km/h 87% 0 mm
10:50 13.6 °C 11.3 °C 1024.6 hPa NE 11.3 km/h 20.9 km/h 86% 0 mm
10:55 13.8 °C 11.6 °C 1024.6 hPa NE 11.3 km/h 20.9 km/h 86% 0 mm
11:00 14 °C 11.7 °C 1024.9 hPa ENE 9.7 km/h 20.9 km/h 86% 0 mm
11:05 14.2 °C 11.7 °C 1024.9 hPa NE 11.3 km/h 22.5 km/h 85% 0 mm
11:10 14.5 °C 12 °C 1024.9 hPa NE 8 km/h 22.5 km/h 85% 0 mm
11:15 14.7 °C 12.1 °C 1024.9 hPa ENE 11.3 km/h 22.5 km/h 84% 0 mm
11:20 14.9 °C 12.1 °C 1024.6 hPa ENE 11.3 km/h 22.5 km/h 83% 0 mm
11:25 15.1 °C 12.2 °C 1024.9 hPa ENE 9.7 km/h 22.5 km/h 83% 0 mm
11:30 15.3 °C 12.4 °C 1024.6 hPa ENE 6.4 km/h 22.5 km/h 83% 0 mm
11:35 15.3 °C 12.3 °C 1024.6 hPa ENE 9.7 km/h 24.1 km/h 82% 0 mm
11:40 15.6 °C 12.5 °C 1024.6 hPa ENE 9.7 km/h 24.1 km/h 82% 0 mm
11:45 16 °C 12.9 °C 1024.6 hPa ENE 9.7 km/h 24.1 km/h 82% 0 mm
11:50 16.6 °C 13.3 °C 1024.6 hPa ENE 6.4 km/h 20.9 km/h 81% 0 mm
11:55 16.7 °C 13.2 °C 1024.6 hPa ENE 8 km/h 20.9 km/h 80% 0 mm
12:00 16.9 °C 13.3 °C 1024.6 hPa ENE 8 km/h 20.9 km/h 79% 0 mm
12:05 16.7 °C 12.8 °C 1024.6 hPa ENE 8 km/h 20.9 km/h 78% 0 mm
12:10 16.6 °C 12.9 °C 1024.6 hPa East 8 km/h 17.7 km/h 79% 0 mm
12:15 16.9 °C 13.1 °C 1024.6 hPa East 8 km/h 17.7 km/h 78% 0 mm
12:20 17.1 °C 13.2 °C 1024.6 hPa ENE 9.7 km/h 17.7 km/h 78% 0 mm
12:25 16.8 °C 13.2 °C 1024.6 hPa ENE 8 km/h 17.7 km/h 79% 0 mm
12:30 17.2 °C 13.5 °C 1024.6 hPa East 8 km/h 17.7 km/h 79% 0 mm
12:35 17.4 °C 13.5 °C 1024.6 hPa East 8 km/h 16.1 km/h 78% 0 mm
12:40 17.3 °C 13.2 °C 1024.6 hPa ENE 8 km/h 16.1 km/h 77% 0 mm
12:45 17.3 °C 13.4 °C 1024.6 hPa ENE 6.4 km/h 16.1 km/h 78% 0 mm
12:50 17.6 °C 13.7 °C 1024.6 hPa ENE 4.8 km/h 16.1 km/h 78% 0 mm
12:55 17.6 °C 13.6 °C 1024.6 hPa ESE 4.8 km/h 12.9 km/h 77% 0 mm
13:00 17.6 °C 13.3 °C 1024.3 hPa ESE 6.4 km/h 16.1 km/h 76% 0 mm
13:05 17.3 °C 13.3 °C 1024.3 hPa East 6.4 km/h 16.1 km/h 77% 0 mm
13:10 17.2 °C 13.2 °C 1024.3 hPa ENE 8 km/h 17.7 km/h 77% 0 mm
13:15 17.2 °C 13.2 °C 1024.3 hPa ENE 6.4 km/h 17.7 km/h 77% 0 mm
13:20 17.3 °C 13.3 °C 1024.3 hPa East 4.8 km/h 17.7 km/h 77% 0 mm
13:25 17.3 °C 13.3 °C 1024.3 hPa East 6.4 km/h 16.1 km/h 77% 0 mm
13:30 17.3 °C 13.3 °C 1024.3 hPa ENE 8 km/h 16.1 km/h 77% 0 mm
13:35 17.3 °C 13.3 °C 1024.3 hPa East 8 km/h 16.1 km/h 77% 0 mm
13:40 17.6 °C 13.5 °C 1024.3 hPa East 4.8 km/h 16.1 km/h 77% 0 mm
13:45 17.6 °C 13.3 °C 1024.3 hPa ENE 6.4 km/h 16.1 km/h 76% 0 mm
13:50 17.7 °C 13.4 °C 1024.3 hPa ENE 6.4 km/h 14.5 km/h 76% 0 mm
13:55 17.6 °C 13.3 °C 1024.3 hPa East 9.7 km/h 22.5 km/h 76% 0 mm
14:00 17.6 °C 13.3 °C 1024.3 hPa East 6.4 km/h 22.5 km/h 76% 0 mm
14:05 17.7 °C 13.4 °C 1023.9 hPa East 4.8 km/h 22.5 km/h 76% 0 mm
14:10 17.9 °C 13.6 °C 1023.9 hPa East 8 km/h 16.1 km/h 76% 0 mm
14:15 17.9 °C 13.2 °C 1023.9 hPa East 8 km/h 17.7 km/h 74% 0 mm
14:20 18 °C 13.5 °C 1023.9 hPa East 4.8 km/h 17.7 km/h 75% 0 mm
14:25 18.2 °C 13.7 °C 1023.9 hPa ENE 6.4 km/h 17.7 km/h 75% 0 mm
14:39 18.2 °C 13.5 °C 1023.9 hPa ENE 4.8 km/h 16.1 km/h 74% 0 mm
14:45 18.2 °C 13.4 °C 1023.9 hPa ESE 11.3 km/h 16.1 km/h 74% 0 mm
14:50 18.1 °C 13.6 °C 1023.9 hPa ENE 4.8 km/h 16.1 km/h 75% 0 mm
14:55 17.8 °C 13.1 °C 1023.6 hPa East 4.8 km/h 22.5 km/h 74% 0 mm
15:00 17.8 °C 13.3 °C 1023.6 hPa East 8 km/h 14.5 km/h 75% 0 mm
15:05 17.8 °C 13.5 °C 1023.6 hPa East 3.2 km/h 16.1 km/h 76% 0 mm
15:15 17.8 °C 13.3 °C 1023.6 hPa ESE 6.4 km/h 14.5 km/h 75% 0 mm
15:20 17.8 °C 13.3 °C 1023.6 hPa ESE 6.4 km/h 14.5 km/h 75% 0 mm
15:25 17.7 °C 13.2 °C 1023.6 hPa East 8 km/h 17.7 km/h 75% 0 mm
15:30 17.8 °C 13.3 °C 1023.6 hPa East 8 km/h 17.7 km/h 75% 0 mm
15:35 18.1 °C 13.3 °C 1023.6 hPa East 6.4 km/h 16.1 km/h 74% 0 mm
15:40 18.1 °C 13.3 °C 1023.6 hPa East 6.4 km/h 17.7 km/h 74% 0 mm
15:45 17.8 °C 13.1 °C 1023.9 hPa East 14.5 km/h 17.7 km/h 74% 0 mm
15:50 17.6 °C 13.1 °C 1023.6 hPa ESE 4.8 km/h 20.9 km/h 75% 0 mm
15:55 17.4 °C 12.9 °C 1023.9 hPa ENE 4.8 km/h 17.7 km/h 75% 0 mm
16:00 17.4 °C 13.1 °C 1023.9 hPa ESE 4.8 km/h 14.5 km/h 76% 0 mm
16:05 17.4 °C 13.1 °C 1023.9 hPa East 6.4 km/h 17.7 km/h 76% 0 mm
16:10 17.3 °C 13.1 °C 1023.9 hPa ESE 6.4 km/h 17.7 km/h 76% 0 mm
16:15 17.3 °C 13.1 °C 1023.9 hPa ESE 6.4 km/h 16.1 km/h 76% 0 mm
16:20 17.4 °C 13.1 °C 1023.9 hPa ESE 4.8 km/h 14.5 km/h 76% 0 mm
16:25 17.4 °C 13.2 °C 1023.9 hPa ESE 4.8 km/h 14.5 km/h 76% 0 mm
16:30 17.4 °C 13.1 °C 1023.9 hPa SSE 1.6 km/h 6.4 km/h 76% 0 mm
16:35 17.4 °C 12.9 °C 1023.9 hPa SE 4.8 km/h 17.7 km/h 75% 0 mm
16:40 17.4 °C 12.9 °C 1023.9 hPa SE 6.4 km/h 17.7 km/h 75% 0 mm
16:45 17.3 °C 12.7 °C 1023.9 hPa SE 8 km/h 12.9 km/h 74% 0 mm
16:50 17.3 °C 12.7 °C 1023.9 hPa SE 4.8 km/h 11.3 km/h 74% 0 mm
16:55 17.3 °C 12.8 °C 1023.9 hPa SE 3.2 km/h 11.3 km/h 75% 0 mm
17:00 17.3 °C 12.6 °C 1023.9 hPa SE 4.8 km/h 12.9 km/h 74% 0 mm
17:05 17.2 °C 12.6 °C 1023.9 hPa Calm   12.9 km/h 74% 0 mm
17:10 17.2 °C 12.6 °C 1023.9 hPa SE 4.8 km/h 12.9 km/h 74% 0 mm
17:15 17.2 °C 12.7 °C 1023.9 hPa SE 4.8 km/h 12.9 km/h 75% 0 mm
17:20 17.1 °C 12.4 °C 1023.9 hPa SE 8 km/h 16.1 km/h 74% 0 mm
17:25 17.1 °C 12.4 °C 1023.9 hPa SE 6.4 km/h 16.1 km/h 74% 0 mm
17:30 17.1 °C 12.4 °C 1023.9 hPa SSE 8 km/h 17.7 km/h 74% 0 mm
17:35 16.9 °C 12.3 °C 1024.3 hPa SE 8 km/h 14.5 km/h 74% 0 mm
17:40 16.9 °C 12.2 °C 1024.3 hPa SSE 1.6 km/h 17.7 km/h 74% 0 mm
17:45 16.8 °C 12.2 °C 1024.3 hPa SE 1.6 km/h 11.3 km/h 74% 0 mm
17:50 16.7 °C 12.3 °C 1024.3 hPa SE 6.4 km/h 17.7 km/h 75% 0 mm
17:55 16.6 °C 12.1 °C 1024.3 hPa SE 6.4 km/h 17.7 km/h 75% 0 mm
18:00 16.3 °C 11.9 °C 1024.3 hPa SSE 6.4 km/h 20.9 km/h 75% 0 mm
18:05 16.2 °C 12 °C 1024.3 hPa SSE 8 km/h 14.5 km/h 76% 0 mm
18:10 16.1 °C 11.9 °C 1024.3 hPa SE 8 km/h 24.1 km/h 76% 0 mm
18:15 15.9 °C 11.8 °C 1024.3 hPa ESE 6.4 km/h 24.1 km/h 77% 0 mm
18:20 15.8 °C 11.9 °C 1024.3 hPa SSE 4.8 km/h 11.3 km/h 78% 0 mm
18:25 15.6 °C 12 °C 1024.3 hPa ESE 1.6 km/h 16.1 km/h 79% 0 mm
18:30 15.4 °C 11.8 °C 1024.3 hPa SE 6.4 km/h 16.1 km/h 79% 0 mm
18:35 15.3 °C 11.9 °C 1024.3 hPa ESE 4.8 km/h 20.9 km/h 80% 0 mm
18:40 15.2 °C 12 °C 1024.3 hPa SE 4.8 km/h 20.9 km/h 81% 0 mm
18:45 15.1 °C 12.1 °C 1024.3 hPa East 4.8 km/h 12.9 km/h 82% 0 mm
18:50 15.1 °C 12 °C 1024.3 hPa SE 4.8 km/h 12.9 km/h 82% 0 mm
18:55 15 °C 11.9 °C 1024.3 hPa SE 4.8 km/h 16.1 km/h 82% 0 mm
19:00 14.9 °C 11.9 °C 1024.3 hPa East 4.8 km/h 11.3 km/h 82% 0 mm
19:05 14.9 °C 11.9 °C 1024.3 hPa East 8 km/h 14.5 km/h 82% 0 mm
19:10 14.9 °C 11.9 °C 1024.3 hPa SE 4.8 km/h 16.1 km/h 82% 0 mm
19:15 14.9 °C 11.9 °C 1024.3 hPa SSE 4.8 km/h 12.9 km/h 82% 0 mm
19:20 14.9 °C 11.9 °C 1024.3 hPa Calm   17.7 km/h 82% 0 mm
19:25 14.9 °C 11.9 °C 1024.6 hPa SE 4.8 km/h 17.7 km/h 82% 0 mm
19:30 14.9 °C 11.9 °C 1024.6 hPa SE 4.8 km/h 12.9 km/h 82% 0 mm
19:35 14.9 °C 11.9 °C 1024.6 hPa ESE 4.8 km/h 12.9 km/h 82% 0 mm
19:40 14.9 °C 11.9 °C 1024.6 hPa ESE 3.2 km/h 12.9 km/h 82% 0 mm
19:45 14.9 °C 12.1 °C 1024.6 hPa SE 4.8 km/h 12.9 km/h 83% 0 mm
19:50 14.8 °C 12.1 °C 1024.6 hPa SE 4.8 km/h 14.5 km/h 84% 0 mm
19:55 14.6 °C 12.1 °C 1024.6 hPa SE 3.2 km/h 14.5 km/h 85% 0 mm
20:00 14.4 °C 12.1 °C 1024.3 hPa SE 4.8 km/h 6.4 km/h 86% 0 mm
20:05 14.3 °C 12.2 °C 1024.6 hPa Calm   6.4 km/h 87% 0 mm
20:10 14.2 °C 12.1 °C 1024.6 hPa Calm   4.8 km/h 87% 0.25 mm
20:15 14.2 °C 12.2 °C 1024.6 hPa Calm   4.8 km/h 88% 0.25 mm
20:20 14.1 °C 12.2 °C 1024.6 hPa Calm     88% 0.25 mm
20:25 14.1 °C 12.3 °C 1024.6 hPa Calm     89% 0.25 mm
20:30 14.1 °C 12.3 °C 1024.6 hPa Calm   8 km/h 89% 0.25 mm
20:35 14.1 °C 12.3 °C 1024.6 hPa Calm   8 km/h 89% 0.25 mm
20:40 14.1 °C 12.3 °C 1024.6 hPa Calm     89% 0.25 mm
20:45 14.1 °C 12.3 °C 1024.6 hPa Calm     89% 0.25 mm
20:50 14.1 °C 12.3 °C 1024.6 hPa Calm   4.8 km/h 89% 0.25 mm
20:55 14.1 °C 12.3 °C 1024.6 hPa Calm   4.8 km/h 89% 0.25 mm
21:00 14.1 °C 12.3 °C 1024.6 hPa Calm   9.7 km/h 89% 0.25 mm
21:05 14.1 °C 12.3 °C 1024.6 hPa SSE 1.6 km/h 4.8 km/h 89% 0.25 mm
21:10 14.1 °C 12.3 °C 1024.6 hPa Calm   3.2 km/h 89% 0 mm
21:15 14.1 °C 12.3 °C 1024.6 hPa Calm   4.8 km/h 89% 0 mm
21:20 14.1 °C 12.1 °C 1024.6 hPa Calm   6.4 km/h 88% 0 mm
21:25 14.1 °C 12.2 °C 1024.6 hPa SE 1.6 km/h 6.4 km/h 88% 0 mm
21:30 14.2 °C 12.2 °C 1024.6 hPa SE 1.6 km/h 6.4 km/h 88% 0 mm
21:35 14.2 °C 12.1 °C 1024.6 hPa SE 3.2 km/h 8 km/h 87% 0 mm
21:40 14.2 °C 12.1 °C 1024.6 hPa SE 3.2 km/h 8 km/h 87% 0 mm
21:45 14.2 °C 12.1 °C 1024.6 hPa SE 3.2 km/h 6.4 km/h 87% 0 mm
21:50 14.2 °C 12.1 °C 1024.6 hPa Calm   4.8 km/h 87% 0 mm
21:55 14.2 °C 11.9 °C 1024.3 hPa SE 1.6 km/h 4.8 km/h 86% 0 mm
22:00 14.2 °C 11.9 °C 1024.6 hPa Calm   6.4 km/h 86% 0 mm
22:05 14.2 °C 11.8 °C 1024.3 hPa SSE 4.8 km/h 8 km/h 86% 0 mm
22:10 14.2 °C 11.8 °C 1024.3 hPa SSE 3.2 km/h 6.4 km/h 86% 0 mm
22:15 14.2 °C 11.8 °C 1024.3 hPa SSE 6.4 km/h 8 km/h 86% 0 mm
22:20 14.2 °C 11.7 °C 1024.3 hPa SSE 3.2 km/h 11.3 km/h 85% 0 mm
22:25 14.2 °C 11.7 °C 1024.3 hPa SSE 4.8 km/h 8 km/h 85% 0 mm
22:30 14.1 °C 11.6 °C 1024.3 hPa SSE 3.2 km/h 8 km/h 85% 0 mm
22:35 13.9 °C 11.3 °C 1024.3 hPa SSE 1.6 km/h 8 km/h 84% 0 mm
22:40 13.8 °C 11.2 °C 1023.9 hPa Calm   4.8 km/h 84% 0 mm
22:45 13.7 °C 11.1 °C 1023.9 hPa Calm   4.8 km/h 84% 0 mm
22:50 13.6 °C 11.1 °C 1023.9 hPa Calm   4.8 km/h 85% 0 mm
22:55 13.4 °C 10.9 °C 1023.9 hPa Calm   4.8 km/h 85% 0 mm
23:00 13.3 °C 10.9 °C 1023.9 hPa Calm   4.8 km/h 85% 0 mm
23:10 13.2 °C 10.9 °C 1023.9 hPa Calm     86% 0 mm
23:15 13.1 °C 10.8 °C 1023.9 hPa Calm     86% 0 mm
23:20 13.1 °C 10.8 °C 1023.9 hPa Calm     86% 0 mm
23:25 13 °C 10.7 °C 1023.9 hPa Calm     86% 0 mm
23:30 12.9 °C 10.7 °C 1023.9 hPa Calm     86% 0 mm
23:35 12.9 °C 10.8 °C 1023.9 hPa Calm   3.2 km/h 87% 0 mm
23:40 12.9 °C 10.8 °C 1023.9 hPa Calm   4.8 km/h 87% 0 mm
23:45 12.8 °C 10.7 °C 1023.9 hPa Calm   4.8 km/h 87% 0 mm
23:50 12.8 °C 10.7 °C 1024.3 hPa SSW 1.6 km/h 4.8 km/h 87% 0 mm
23:55 12.8 °C 10.7 °C 1023.9 hPa Calm   4.8 km/h 87% 0 mm
Buffalo, New York, USA
Compliments of Weather Underground - 2.5 mb